NOZ9WB ENVA-ENBR

Flight info

Callsign NOZ9WB
Flight time 0h 43m
Altitude 36000
Route OSMUM DCT KEKOD DCT LUNUR
Aircraft B738/M-SDE2E3FGHIRWXY/LB1

Departure

Time 2026-04-29 21:01
Airport Trondheim Airport, Værnes (ENVA)

Arrival

Time 2026-04-29 21:45
Airport Bergen Airport, Flesland (ENBR)
Time Latitude Longitude Altitude Speed Heading
2026-04-29 20:46 63.45501 10.91657 6 ft 0 kts 180°
2026-04-29 20:54 63.45508 10.91657 6 ft 2 kts 180°
2026-04-29 20:54 63.45523 10.91657 7 ft 2 kts 180°
2026-04-29 20:55 63.45538 10.91657 7 ft 2 kts 180°
2026-04-29 20:55 63.45553 10.91658 7 ft 2 kts 180°
2026-04-29 20:55 63.45567 10.91658 7 ft 2 kts 181°
2026-04-29 20:55 63.45577 10.91658 8 ft 0 kts 180°
2026-04-29 20:57 63.45575 10.91660 8 ft 0 kts 158°
2026-04-29 20:57 63.45576 10.91712 9 ft 7 kts 75°
2026-04-29 20:58 63.45593 10.91865 9 ft 13 kts 83°
2026-04-29 20:58 63.45596 10.92114 10 ft 18 kts 90°
2026-04-29 20:58 63.45595 10.92413 13 ft 18 kts 90°
2026-04-29 20:58 63.45594 10.92708 15 ft 19 kts 90°
2026-04-29 20:59 63.45594 10.93012 20 ft 19 kts 90°
2026-04-29 20:59 63.45593 10.93324 26 ft 19 kts 90°
2026-04-29 20:59 63.45593 10.93608 34 ft 17 kts 90°
2026-04-29 20:59 63.45607 10.93840 42 ft 13 kts 63°
2026-04-29 21:00 63.45639 10.93930 46 ft 4 kts 45°
2026-04-29 21:00 63.45664 10.93986 48 ft 6 kts 43°
2026-04-29 21:00 63.45723 10.94074 52 ft 13 kts 354°
2026-04-29 21:00 63.45757 10.93822 45 ft 36 kts 269°
2026-04-29 21:01 63.45759 10.92524 17 ft 126 kts 270°
2026-04-29 21:01 63.45764 10.90190 382 ft 165 kts 270°
2026-04-29 21:01 63.45775 10.87746 1542 ft 159 kts 274°
2026-04-29 21:01 63.45776 10.85261 2210 ft 171 kts 274°
2026-04-29 21:02 63.45777 10.82461 2769 ft 190 kts 274°
2026-04-29 21:02 63.45782 10.79384 3377 ft 210 kts 274°
2026-04-29 21:02 63.45726 10.76038 4132 ft 228 kts 263°
2026-04-29 21:02 63.44944 10.72830 4823 ft 257 kts 228°
2026-04-29 21:03 63.43359 10.70835 5811 ft 273 kts 210°
2026-04-29 21:03 63.41601 10.69269 6788 ft 277 kts 210°
2026-04-29 21:03 63.39849 10.67548 7722 ft 280 kts 213°
2026-04-29 21:03 63.38085 10.65680 8618 ft 286 kts 214°
2026-04-29 21:04 63.36292 10.63726 9470 ft 293 kts 214°
2026-04-29 21:04 63.34463 10.61720 10338 ft 298 kts 214°
2026-04-29 21:04 63.32560 10.59624 10902 ft 316 kts 214°
2026-04-29 21:04 63.30545 10.57395 11288 ft 338 kts 213°
2026-04-29 21:05 63.28389 10.55029 11908 ft 351 kts 213°
2026-04-29 21:05 63.26194 10.52632 12649 ft 359 kts 213°
2026-04-29 21:05 63.23932 10.50172 13409 ft 366 kts 213°
2026-04-29 21:05 63.21664 10.47706 14214 ft 371 kts 213°
2026-04-29 21:06 63.19352 10.45196 15028 ft 375 kts 213°
2026-04-29 21:06 63.17014 10.42663 15904 ft 377 kts 213°
2026-04-29 21:06 63.14639 10.40090 16624 ft 383 kts 213°
2026-04-29 21:06 63.12259 10.37513 17353 ft 388 kts 213°
2026-04-29 21:07 63.09817 10.34874 18026 ft 394 kts 212°
2026-04-29 21:07 63.07355 10.32218 18728 ft 399 kts 212°
2026-04-29 21:07 63.04880 10.29559 19573 ft 400 kts 212°
2026-04-29 21:07 63.02389 10.26886 20286 ft 404 kts 212°
2026-04-29 21:08 62.99892 10.24211 21024 ft 406 kts 212°
2026-04-29 21:08 62.97326 10.21464 21684 ft 411 kts 212°
2026-04-29 21:08 62.94770 10.18734 22337 ft 415 kts 212°
2026-04-29 21:08 62.92155 10.15947 23019 ft 418 kts 212°
2026-04-29 21:09 62.89569 10.13197 23620 ft 422 kts 212°
2026-04-29 21:09 62.86940 10.10261 24229 ft 423 kts 215°
2026-04-29 21:09 62.84457 10.06955 24811 ft 421 kts 221°
2026-04-29 21:09 62.82197 10.03026 25434 ft 418 kts 228°
2026-04-29 21:10 62.80070 9.98679 25911 ft 421 kts 230°
2026-04-29 21:10 62.78011 9.94208 26548 ft 421 kts 231°
2026-04-29 21:10 62.75979 9.89677 27146 ft 422 kts 232°
2026-04-29 21:10 62.73922 9.85076 27679 ft 425 kts 232°
2026-04-29 21:11 62.71863 9.80484 28025 ft 432 kts 231°
2026-04-29 21:11 62.69748 9.75792 28589 ft 433 kts 231°
2026-04-29 21:11 62.67651 9.71165 29116 ft 435 kts 231°
2026-04-29 21:11 62.65505 9.66445 29544 ft 439 kts 231°
2026-04-29 21:12 62.63359 9.61736 29951 ft 443 kts 231°
2026-04-29 21:12 62.61210 9.57041 30447 ft 444 kts 231°
2026-04-29 21:12 62.59040 9.52307 30810 ft 448 kts 231°
2026-04-29 21:12 62.56828 9.47498 31326 ft 449 kts 231°
2026-04-29 21:13 62.54660 9.42803 32043 ft 444 kts 231°
2026-04-29 21:13 62.52507 9.38152 32723 ft 439 kts 231°
2026-04-29 21:13 62.50359 9.33521 33349 ft 436 kts 230°
2026-04-29 21:13 62.48229 9.28934 33918 ft 434 kts 230°
2026-04-29 21:14 62.46113 9.24386 34452 ft 432 kts 230°
2026-04-29 21:14 62.43985 9.19817 34836 ft 433 kts 230°
2026-04-29 21:14 62.41844 9.15231 35278 ft 432 kts 230°
2026-04-29 21:14 62.39706 9.10662 35653 ft 432 kts 230°
2026-04-29 21:15 62.37583 9.06134 36040 ft 432 kts 230°
2026-04-29 21:15 62.35465 9.01628 36335 ft 433 kts 230°
2026-04-29 21:15 62.33292 8.97012 36354 ft 436 kts 230°
2026-04-29 21:16 62.29004 8.87941 36355 ft 432 kts 230°
2026-04-29 21:16 62.24744 8.78972 36377 ft 429 kts 230°
2026-04-29 21:17 62.19785 8.68562 36368 ft 431 kts 230°
2026-04-29 21:17 62.16207 8.61091 36385 ft 431 kts 230°
2026-04-29 21:18 62.11939 8.52210 36384 ft 432 kts 230°
2026-04-29 21:18 62.09787 8.47748 36664 ft 432 kts 230°
2026-04-29 21:18 62.07646 8.43315 36445 ft 434 kts 229°
2026-04-29 21:18 62.05496 8.38879 36164 ft 429 kts 229°
2026-04-29 21:19 62.03365 8.34494 36350 ft 425 kts 229°
2026-04-29 21:19 61.99057 8.25632 36412 ft 437 kts 229°
2026-04-29 21:20 61.94706 8.16729 36419 ft 435 kts 228°
2026-04-29 21:20 61.90407 8.07976 36562 ft 433 kts 228°
2026-04-29 21:21 61.86097 7.99234 36447 ft 428 kts 229°
2026-04-29 21:21 61.81759 7.90462 36455 ft 432 kts 228°
2026-04-29 21:22 61.77444 7.81776 36460 ft 433 kts 228°
2026-04-29 21:22 61.73112 7.73097 36447 ft 431 kts 228°
2026-04-29 21:23 61.68779 7.64448 36442 ft 431 kts 228°
2026-04-29 21:23 61.64402 7.55772 36426 ft 432 kts 227°
2026-04-29 21:24 61.59972 7.47353 36423 ft 433 kts 226°
2026-04-29 21:24 61.55491 7.38945 36414 ft 432 kts 226°
2026-04-29 21:25 61.51023 7.30573 36447 ft 432 kts 225°
2026-04-29 21:25 61.46561 7.22235 36458 ft 433 kts 225°
2026-04-29 21:26 61.42089 7.13906 36329 ft 427 kts 225°
2026-04-29 21:26 61.39885 7.09816 35786 ft 424 kts 225°
2026-04-29 21:26 61.37695 7.05754 34901 ft 428 kts 225°
2026-04-29 21:26 61.35469 7.01631 34188 ft 429 kts 225°
2026-04-29 21:27 61.33257 6.97543 33540 ft 428 kts 225°
2026-04-29 21:27 61.31057 6.93490 33107 ft 423 kts 225°
2026-04-29 21:27 61.28846 6.89424 32545 ft 420 kts 225°
2026-04-29 21:27 61.26697 6.85478 32034 ft 417 kts 225°
2026-04-29 21:28 61.24539 6.81524 31490 ft 414 kts 225°
2026-04-29 21:28 61.22390 6.77592 30957 ft 412 kts 226°
2026-04-29 21:28 61.20253 6.73688 30404 ft 409 kts 225°
2026-04-29 21:28 61.18142 6.69840 29848 ft 406 kts 226°
2026-04-29 21:29 61.16048 6.66031 29321 ft 403 kts 226°
2026-04-29 21:29 61.14050 6.62000 28759 ft 398 kts 231°
2026-04-29 21:29 61.12246 6.57803 28298 ft 393 kts 233°
2026-04-29 21:29 61.10475 6.53543 27736 ft 391 kts 233°
2026-04-29 21:30 61.08726 6.49306 27270 ft 387 kts 233°
2026-04-29 21:30 61.06993 6.45109 26739 ft 384 kts 234°
2026-04-29 21:30 61.05281 6.40958 25626 ft 387 kts 233°
2026-04-29 21:30 61.03555 6.36761 24927 ft 378 kts 233°
2026-04-29 21:31 61.01888 6.32706 24211 ft 371 kts 232°
2026-04-29 21:31 61.00239 6.28682 23420 ft 366 kts 233°
2026-04-29 21:31 60.98629 6.24750 22582 ft 363 kts 233°
2026-04-29 21:31 60.97031 6.20856 21775 ft 359 kts 233°
2026-04-29 21:32 60.95422 6.16954 20949 ft 357 kts 233°
2026-04-29 21:32 60.93839 6.13138 20150 ft 354 kts 233°
2026-04-29 21:32 60.92238 6.09299 19338 ft 351 kts 233°
2026-04-29 21:32 60.90677 6.05564 18591 ft 347 kts 233°
2026-04-29 21:33 60.89125 6.01867 17842 ft 343 kts 233°
2026-04-29 21:33 60.87576 5.98182 17113 ft 338 kts 233°
2026-04-29 21:33 60.86056 5.94555 16359 ft 334 kts 233°
2026-04-29 21:33 60.84573 5.90996 15692 ft 329 kts 233°
2026-04-29 21:34 60.83136 5.87558 15349 ft 314 kts 233°
2026-04-29 21:34 60.81742 5.84238 14856 ft 306 kts 233°
2026-04-29 21:34 60.80376 5.80978 14299 ft 301 kts 233°
2026-04-29 21:34 60.79018 5.77726 13695 ft 297 kts 233°
2026-04-29 21:35 60.77708 5.74580 13104 ft 295 kts 233°
2026-04-29 21:35 60.76392 5.71416 12522 ft 291 kts 233°
2026-04-29 21:35 60.75101 5.68312 11907 ft 289 kts 233°
2026-04-29 21:35 60.73812 5.65207 11303 ft 286 kts 233°
2026-04-29 21:36 60.72542 5.62138 10710 ft 283 kts 233°
2026-04-29 21:36 60.71278 5.59081 10117 ft 280 kts 233°
2026-04-29 21:36 60.70045 5.56109 9539 ft 277 kts 233°
2026-04-29 21:36 60.68811 5.53118 8955 ft 274 kts 233°
2026-04-29 21:37 60.67606 5.50177 8330 ft 274 kts 233°
2026-04-29 21:37 60.66398 5.47203 7736 ft 272 kts 233°
2026-04-29 21:37 60.65218 5.44281 7184 ft 269 kts 233°
2026-04-29 21:37 60.64035 5.41341 6883 ft 260 kts 233°
2026-04-29 21:38 60.62904 5.38521 6450 ft 264 kts 233°
2026-04-29 21:38 60.61739 5.35599 6055 ft 264 kts 233°
2026-04-29 21:38 60.60600 5.32724 5540 ft 266 kts 232°
2026-04-29 21:38 60.59450 5.29809 5108 ft 262 kts 232°
2026-04-29 21:39 60.58345 5.27002 4938 ft 245 kts 232°
2026-04-29 21:39 60.57307 5.24368 4707 ft 235 kts 232°
2026-04-29 21:39 60.56307 5.21834 4343 ft 232 kts 232°
2026-04-29 21:39 60.55117 5.19676 3868 ft 235 kts 208°
2026-04-29 21:40 60.53666 5.18375 3808 ft 223 kts 202°
2026-04-29 21:40 60.52198 5.17180 3392 ft 230 kts 202°
2026-04-29 21:40 60.50738 5.16012 2994 ft 225 kts 198°
2026-04-29 21:40 60.49247 5.15652 2979 ft 211 kts 177°
2026-04-29 21:41 60.47783 5.15863 2987 ft 211 kts 174°
2026-04-29 21:41 60.46335 5.16194 2977 ft 209 kts 172°
2026-04-29 21:41 60.44900 5.16588 2972 ft 207 kts 171°
2026-04-29 21:41 60.43526 5.17033 2839 ft 195 kts 170°
2026-04-29 21:42 60.42210 5.17479 2616 ft 189 kts 171°
2026-04-29 21:42 60.40918 5.17915 2324 ft 183 kts 171°
2026-04-29 21:42 60.39730 5.18316 2099 ft 173 kts 170°
2026-04-29 21:42 60.38554 5.18713 1849 ft 172 kts 170°
2026-04-29 21:43 60.37382 5.19108 1601 ft 168 kts 170°
2026-04-29 21:43 60.36254 5.19488 1386 ft 158 kts 170°
2026-04-29 21:43 60.35226 5.19836 1146 ft 142 kts 170°
2026-04-29 21:43 60.34280 5.20156 972 ft 137 kts 170°
2026-04-29 21:44 60.33339 5.20471 795 ft 139 kts 171°
2026-04-29 21:44 60.32392 5.20789 580 ft 137 kts 169°
2026-04-29 21:44 60.31466 5.21100 389 ft 135 kts 169°
2026-04-29 21:44 60.30544 5.21409 218 ft 134 kts 170°
2026-04-29 21:45 60.29752 5.21677 145 ft 76 kts 170°
2026-04-29 21:45 60.29435 5.21782 149 ft 22 kts 168°
2026-04-29 21:45 60.29395 5.21859 152 ft 7 kts 114°
2026-04-29 21:45 60.29385 5.21971 155 ft 7 kts 88°
2026-04-29 21:46 60.29372 5.22108 158 ft 12 kts 140°
2026-04-29 21:46 60.29281 5.22157 161 ft 16 kts 170°
2026-04-29 21:46 60.29145 5.22202 165 ft 22 kts 171°
2026-04-29 21:46 60.28998 5.22250 168 ft 22 kts 171°
2026-04-29 21:47 60.28858 5.22298 169 ft 17 kts 170°
2026-04-29 21:47 60.28738 5.22337 168 ft 13 kts 169°
2026-04-29 21:47 60.28696 5.22451 170 ft 10 kts 76°
2026-04-29 21:47 60.28713 5.22608 171 ft 13 kts 80°
2026-04-29 21:48 60.28728 5.22786 175 ft 11 kts 78°
2026-04-29 21:48 60.28737 5.22895 179 ft 3 kts 80°
2026-04-29 21:48 60.28737 5.22896 179 ft 0 kts 80°